Tracking 35334 objects as of 12-Sep-2026
HD Live streaming from Space Station
objects crossing your sky now

DMSP 5D-2 F13 DEB

Track DMSP 5D-2 F13 DEB now!
10-day predictions


NORAD ID: 40409
Int'l Code: 1995-015W
Launch date: March 24, 1995
Source: United States (US)
Launch site: AIR FORCE WESTERN TEST RANGE (AFWTR)

Note: This is SATELLITE DEBRIS
Your satellite tracking list
Your tracking list is empty




NASA's NSSDC Master Catalog

Two Line Element Set (TLE):
1 40409U 95015W   26255.00484627  .00001598  00000-0  66960-3 0  9991
2 40409  98.7337 279.9441 0004356 148.2222 211.9222 14.27415943598147
Source of the keplerian elements: AFSPC